Regional Weather Roundup
Issued by NWS

Home | Current Version | Previous Version | Text Only | Print | Product List | Glossary On
Versions: 1 2 3 4 5 6 7 8 9 10 11 12 13 14 15 16 17 18 19 20 21 22 23 24 25 26 27 28 29 30 31 32 33 34 35 36 37 38 39 40 41 42 43 44 45 46 47 48 49 50
000
ASUS43 KLSX 251959
RWRMO

WEATHER SUMMARY FOR MISSOURI
NATIONAL WEATHER SERVICE SPRINGFIELD MO
200 PM CST SUN JAN 25 2015

NOTE: "FAIR" INDICATES FEW OR NO CLOUDS BELOW 12,000 FEET WITH NO
       SIGNIFICANT WEATHER AND/OR OBSTRUCTIONS TO VISIBILITY.
       CURRENT SKY AND/OR WEATHER CONDITIONS ARE NOT AVAILABLE FOR
       CHILLICOTHE AND FARMINGTON.

MOZ001>031-035>038-043-044-053-054-252100-
...NORTHERN AND WESTERN MISSOURI...

CITY           SKY/WX    TMP DP  RH WIND       PRES   REMARKS
KANSAS CTY INT CLOUDY    38  34  85 N18G30    29.87R WCI  28
KANSAS C DTWN  CLOUDY    40  33  76 N18G32    29.87R
LEE`S SUMMIT   CLOUDY    38  33  82 N25G36    29.85R WCI  27
ST JOSEPH      CLOUDY    38  33  82 N22       29.93R WCI  27
CHILLICOTHE      N/A     37  32  82 N8G22     29.86R
KIRKSVILLE     CLOUDY    33  31  92 N20       29.82R WCI  21

$$
MOZ066>068-077>081-088>096-101>105-252100-
...SOUTHWEST MISSOURI...

CITY           SKY/WX    TMP DP  RH WIND       PRES   REMARKS
SPRINGFIELD    LGT RAIN  38  34  85 NW17G24   29.78R FOG     WCI  28
JOPLIN         CLOUDY    42  31  64 NW22G30   29.87R

$$
MOZ032>034-039>042-045>050-055>058-069>072-252100-
...CENTRAL MISSOURI...

CITY           SKY/WX    TMP DP  RH WIND       PRES   REMARKS
COLUMBIA       LGT RAIN  41  41 100 N13       29.69R
JEFFERSON CITY LGT RAIN  39  37  92 NW12      29.69R
ROLLA          LGT RAIN  39  35  86 W23G29    29.65R WCI  28
SEDALIA        LGT RAIN  38  35  89 NW16G29   29.77R WCI  29
OSAGE BEACH    CLOUDY    37  34  87 W10G20    29.72R

$$
MOZ051-052-059>065-252100-
...EAST CENTRAL MISSOURI...

CITY           SKY/WX    TMP DP  RH WIND       PRES   REMARKS
ST LOUIS INTL  LGT RAIN  46  43  89 N13       29.61R FOG
SPIRIT OF STL  LGT RAIN  45  42  89 W10       29.61R
ST CHARLES     LGT RAIN  43  41  93 N14G21    29.63R

$$
MOZ072>076-082>087-097>100-106>115-252100-
...SOUTH CENTRAL AND SOUTHEAST MISSOURI...

CITY           SKY/WX    TMP DP  RH WIND       PRES   REMARKS
CAPE GIRARDEAU LGT RAIN  44  43  96 SW9       29.60S FOG
FARMINGTON     CLOUDY    46  39  76 MISG      29.62R
POPLAR BLUFF   CLOUDY    50  44  80 CALM      29.61S
WEST PLAINS    CLOUDY    42  34  73 NW15G25   29.69R

$$



USA.gov is the U.S. government's official web portal to all federal, state and local government web resources and services.